Location: Coupvray
(48.8929°N, 2.7967°E)
Time: 15:35:35
(UTC+00:00)

X-37B - Visible Passes

Search period start: 30 September 2020 00:00
Search period end: 10 October 2020 00:00
Orbit: 386 x 387 km, 45.0° (Epoch: 18 September)

Date Brightness Start Highest point End Pass type
(mag) Time Alt. Az. Time Alt. Az. Time Alt. Az.
02 Oct 3.2 19:10:34 10° SSW 19:10:54 11° S 19:10:54 11° S visible
03 Oct 3.0 18:13:45 10° SSE 18:14:15 10° SSE 18:14:47 10° SE visible
03 Oct 3.6 19:47:24 10° SW 19:47:32 11° SW 19:47:32 11° SW visible
04 Oct 2.1 18:49:16 10° SSW 18:51:46 22° SSE 18:51:46 22° SSE visible
05 Oct 2.7 17:51:25 10° SSW 17:53:27 16° SSE 17:55:28 10° ESE visible
05 Oct 2.5 19:26:36 10° WSW 19:28:11 23° SW 19:28:11 23° SW visible
06 Oct 1.8 18:28:17 10° SW 18:31:06 29° SSE 18:32:15 23° SE visible
06 Oct 3.9 20:04:22 10° WSW 20:04:31 11° WSW 20:04:31 11° WSW visible
07 Oct 1.5 19:05:53 10° WSW 19:08:32 38° SSW 19:08:32 38° SSW visible
08 Oct 1.5 18:07:27 10° WSW 18:10:25 36° S 18:12:31 16° ESE visible
08 Oct 3.2 19:43:46 10° WSW 19:44:47 18° WSW 19:44:47 18° WSW visible
09 Oct 1.3 18:45:14 10° WSW 18:48:15 40° S 18:48:46 37° SSE visible
